Total_Precipitation_Accumulation
1.85 2.23 2.58 3.02 3.46 3.97 4.68 5.29 5.68 5.65 5.43 5.04 4.63 4.32 3.85 3.54 3.26 2.96 2.73 2.49 2.24 2.14 2.40 2.22 2.44 2.37 2.24 2.07 2.06 2.15 2.15 1.89 2.13 2.31 1.87 1.41 1.17 1.04 0.89 0.89 0.96 0.90 0.96
1.80 2.14 2.65 2.94 3.27 3.75 4.27 4.73 4.71 4.38 4.22 4.14 4.03 3.75 3.78 3.64 3.48 3.23 2.98 2.58 2.41 2.25 2.09 2.20 2.07 2.03 2.09 1.90 1.80 1.94 1.94 1.69 1.97 2.09 2.03 1.50 1.27 1.03 0.71 0.77 0.81 0.89 1.09
1.44 1.77 2.33 2.62 2.79 3.20 3.54 3.61 3.49 3.30 3.32 3.32 3.26 3.30 3.54 3.58 3.50 3.34 3.08 2.79 2.64 2.50 2.33 2.16 1.99 1.93 1.79 1.80 1.79 1.84 1.84 1.75 1.74 1.81 1.96 1.55 1.23 1.03 0.71 0.62 0.70 0.96 1.23
1.20 1.48 1.81 2.02 2.25 2.44 2.60 2.61 2.68 2.69 2.68 2.70 2.66 2.57 2.61 2.75 2.96 3.20 3.24 3.19 2.98 2.73 2.45 2.24 2.03 1.83 1.67 1.79 1.54 1.61 1.82 1.88 1.63 1.61 1.59 1.49 1.56 1.49 1.12 0.79 0.70 0.93 1.11
1.22 1.42 1.51 1.63 1.72 1.75 1.88 1.94 2.21 2.51 2.60 2.63 2.72 2.60 2.32 2.27 2.32 2.46 2.61 2.63 2.62 2.50 2.20 2.09 2.03 1.84 1.65 1.61 1.57 1.73 1.73 1.69 1.60 1.62 1.58 1.67 1.77 1.61 1.48 1.18 1.05 1.08 1.00
0.93 1.15 1.38 1.42 1.38 1.37 1.53 1.73 2.02 2.40 2.61 2.65 2.61 2.54 2.44 2.38 2.27 2.23 2.27 2.16 2.15 2.12 2.01 1.93 1.93 1.79 1.65 1.61 1.57 1.66 1.72 1.75 1.77 1.72 1.66 1.71 1.69 1.69 1.85 1.62 1.42 1.35 1.15
0.69 0.70 0.87 1.09 1.06 1.03 1.17 1.45 1.66 1.92 2.12 2.21 2.22 2.12 2.21 2.32 2.19 2.06 1.96 1.87 1.74 1.69 1.71 1.78 1.85 1.70 1.63 1.69 1.79 1.74 1.66 1.73 1.81 1.74 1.78 1.81 1.74 1.83 1.99 1.95 1.69 1.56 1.43
0.50 0.48 0.53 0.67 0.88 0.88 0.92 1.04 1.30 1.47 1.64 1.74 1.87 1.95 2.10 2.22 2.16 2.30 2.09 1.93 1.66 1.54 1.59 1.75 1.82 1.73 1.64 1.59 1.82 1.80 1.79 1.85 1.83 1.73 1.94 1.97 1.78 1.96 2.16 2.26 2.25 2.01 1.89
0.39 0.40 0.47 0.65 0.66 0.63 0.67 0.78 1.00 1.14 1.30 1.49 1.67 1.74 1.71 1.72 1.84 2.01 2.00 1.86 1.79 1.63 1.71 1.76 1.90 1.94 1.96 1.94 2.02 1.94 1.96 2.11 2.09 2.03 2.12 2.13 2.00 2.04 2.14 2.34 2.48 2.48 2.33
0.38 0.38 0.41 0.48 0.48 0.46 0.57 0.78 0.94 0.96 1.22 1.53 1.70 1.60 1.57 1.47 1.60 1.66 1.70 1.77 1.74 1.75 1.78 1.78 1.82 1.91 1.99 2.01 2.10 2.06 2.13 2.31 2.32 2.38 2.46 2.35 2.13 2.18 2.22 2.31 2.50 2.69 2.71
0.42 0.43 0.42 0.42 0.52 0.45 0.51 0.66 0.80 0.95 1.22 1.53 1.72 1.69 1.54 1.53 1.62 1.54 1.53 1.67 1.73 1.72 1.76 1.76 1.72 1.70 1.80 1.97 2.11 2.09 2.24 2.36 2.41 2.42 2.35 2.26 2.28 2.36 2.28 2.36 2.47 2.63 2.79
0.35 0.33 0.30 0.33 0.32 0.32 0.43 0.74 1.08 1.43 1.58 1.81 2.02 2.01 1.72 1.56 1.48 1.35 1.36 1.57 1.76 1.79 1.75 1.72 1.69 1.63 1.70 1.93 2.08 2.20 2.45 2.56 2.48 2.39 2.35 2.24 2.34 2.44 2.38 2.40 2.35 2.39 2.63
0.34 0.34 0.29 0.35 0.30 0.28 0.35 0.52 0.69 1.03 1.33 1.62 1.86 1.80 1.56 1.39 1.35 1.35 1.42 1.58 1.70 1.71 1.66 1.66 1.71 1.82 1.92 2.10 2.24 2.35 2.51 2.47 2.37 2.37 2.29 2.18 2.21 2.19 2.25 2.29 2.25 2.20 2.25
0.43 0.38 0.36 0.33 0.31 0.32 0.33 0.43 0.52 0.61 0.80 1.18 1.44 1.45 1.32 1.26 1.28 1.35 1.38 1.37 1.40 1.46 1.52 1.70 1.92 2.09 2.21 2.31 2.37 2.37 2.33 2.29 2.18 2.11 2.02 2.01 2.08 2.15 2.17 2.10 2.07 2.07 2.14
0.43 0.39 0.38 0.42 0.45 0.48 0.44 0.44 0.49 0.53 0.69 1.07 1.28 1.26 1.23 1.22 1.19 1.20 1.27 1.32 1.38 1.46 1.67 1.84 1.94 1.97 2.03 2.10 2.23 2.23 2.15 2.10 2.00 1.89 1.71 1.73 1.98 2.09 2.06 1.90 1.97 2.04 2.08
0.42 0.40 0.33 0.42 0.49 0.52 0.52 0.50 0.51 0.56 0.70 0.97 1.18 1.19 1.16 1.13 1.08 1.11 1.20 1.37 1.47 1.63 1.80 1.84 1.82 1.78 1.54 1.62 1.74 1.79 1.81 1.80 1.75 1.64 1.57 1.58 1.68 1.68 1.68 1.65 1.64 1.72 1.81
0.41 0.33 0.35 0.48 0.67 0.62 0.60 0.64 0.60 0.61 0.75 0.95 1.13 1.21 1.18 1.19 1.16 1.13 1.29 1.48 1.64 1.80 1.92 1.90 1.85 1.75 1.68 1.56 1.42 1.39 1.44 1.55 1.56 1.58 1.63 1.43 1.31 1.44 1.46 1.55 1.51 1.46 1.53
0.49 0.48 0.45 0.51 0.60 0.59 0.62 0.68 0.68 0.69 0.80 0.99 1.21 1.30 1.23 1.27 1.35 1.36 1.45 1.67 1.89 2.04 2.05 2.00 1.92 1.89 1.83 1.72 1.50 1.40 1.35 1.49 1.53 1.53 1.55 1.53 1.46 1.45 1.54 1.58 1.51 1.39 1.36
0.60 0.62 0.66 0.63 0.68 0.72 0.74 0.74 0.81 0.86 0.94 1.03 1.20 1.30 1.36 1.45 1.48 1.52 1.70 1.92 2.11 2.15 2.10 2.13 2.07 2.03 2.05 1.89 1.54 1.37 1.36 1.53 1.56 1.56 1.53 1.50 1.46 1.50 1.37 1.33 1.34 1.34 1.31
0.70 0.68 0.74 0.78 0.82 0.86 0.91 0.92 0.99 1.11 1.26 1.35 1.42 1.60 1.78 1.94 2.02 2.06 2.13 2.18 2.24 2.17 2.13 2.13 2.17 2.11 2.11 2.01 1.52 1.29 1.29 1.48 1.53 1.60 1.57 1.47 1.35 1.31 1.18 1.16 1.29 1.28 1.26
0.64 0.69 0.73 0.82 0.84 0.88 1.01 1.17 1.25 1.36 1.50 1.64 1.72 1.91 2.20 2.38 2.36 2.36 2.31 2.24 2.25 2.27 2.24 2.18 2.18 2.14 2.07 1.98 1.57 1.38 1.39 1.54 1.63 1.63 1.59 1.53 1.39 1.19 1.13 1.07 1.11 1.16 1.14
0.59 0.65 0.71 0.77 0.88 1.01 1.24 1.50 1.59 1.56 1.68 1.86 2.02 2.21 2.44 2.39 2.31 2.47 2.40 2.37 2.44 2.42 2.32 2.25 2.17 2.19 2.15 1.97 1.66 1.41 1.46 1.60 1.72 1.78 1.74 1.64 1.42 1.18 1.08 0.99 0.97 0.92 0.86
0.57 0.63 0.69 0.81 0.92 1.14 1.51 1.77 1.81 1.88 1.95 2.06 2.16 2.22 2.31 2.49 2.64 2.69 2.61 2.53 2.51 2.46 2.29 2.19 2.05 1.98 2.06 2.09 1.67 1.38 1.43 1.51 1.55 1.72 1.74 1.48 1.26 1.10 0.95 0.91 0.89 0.79 0.73
0.58 0.65 0.74 0.91 1.10 1.28 1.59 1.75 1.79 1.86 1.92 1.95 1.93 2.01 2.16 2.30 2.38 2.61 2.67 2.58 2.43 2.38 2.34 2.24 2.09 2.00 2.02 2.02 1.69 1.37 1.35 1.42 1.41 1.49 1.55 1.41 1.23 1.08 0.96 0.91 0.86 0.81 0.82
0.60 0.71 0.82 0.94 1.06 1.23 1.42 1.52 1.69 1.78 1.89 1.90 1.85 1.85 1.87 1.97 2.05 2.15 2.24 2.22 2.21 2.04 1.95 1.86 1.81 1.79 1.83 1.79 1.54 1.35 1.35 1.46 1.51 1.46 1.48 1.48 1.35 1.22 1.11 1.07 1.10 1.11 1.06
0.61 0.73 0.86 0.98 1.07 1.23 1.43 1.51 1.64 1.73 1.78 1.76 1.69 1.71 1.72 1.78 1.82 1.82 1.76 1.60 1.54 1.39 1.25 1.20 1.16 1.18 1.24 1.34 1.19 1.07 1.16 1.30 1.36 1.28 1.32 1.42 1.41 1.34 1.25 1.19 1.19 1.17 1.11